Voltar ao catálogo

STARLINK-32333

AtivoComunicaçõesVLEO
NORAD 61626·PAYLOAD·🇺🇸 United States

Lançado Oct 23, 2024 de Cape Canaveral Space Force Station

Loading…

Próximas Passagens (próximas 24 horas)

TLE

AtualizadoSource: CelesTrak SupGP

Época: Sep 15, 2026, 03:24 UTC

1 61626C 24191F   26258.14215278  .00037667  00000+0  13644-2 0  2587
2 61626  42.9996 168.2346 0001451 272.8554 260.9041 15.27556264    12

Acompanhe STARLINK-32333 em tempo real com AllMySat

Download on the App Store